TimeEDT,TemperatureF,Dew PointF,Humidity,Sea Level PressureIn,VisibilityMPH,Wind Direction,Wind SpeedMPH,Gust SpeedMPH,PrecipitationIn,Events,Conditions,WindDirDegrees,DateUTC
12:52 AM,50.0,33.1,52,29.90,10.0,Calm,Calm,-,N/A,,Clear,0,2012-10-17 04:52:00
1:52 AM,46.9,34.0,61,29.91,10.0,Calm,Calm,-,N/A,,Clear,0,2012-10-17 05:52:00
2:52 AM,48.9,34.0,56,29.91,10.0,Calm,Calm,-,N/A,,Clear,0,2012-10-17 06:52:00
3:52 AM,48.0,35.1,61,29.91,10.0,Calm,Calm,-,N/A,,Clear,0,2012-10-17 07:52:00
4:52 AM,44.1,35.1,71,29.92,10.0,Calm,Calm,-,N/A,,Clear,0,2012-10-17 08:52:00
5:52 AM,46.0,34.0,63,29.92,10.0,Calm,Calm,-,N/A,,Clear,0,2012-10-17 09:52:00
6:52 AM,46.0,35.1,66,29.94,10.0,Calm,Calm,-,N/A,,Clear,0,2012-10-17 10:52:00
7:52 AM,45.0,35.1,68,29.95,10.0,Calm,Calm,-,N/A,,Clear,0,2012-10-17 11:52:00
8:52 AM,48.0,37.9,68,29.96,10.0,Calm,Calm,-,N/A,,Clear,0,2012-10-17 12:52:00
9:52 AM,54.0,39.9,59,29.96,10.0,Calm,Calm,-,N/A,,Clear,0,2012-10-17 13:52:00
10:52 AM,60.1,41.0,49,29.94,10.0,SE,3.5,-,N/A,,Clear,130,2012-10-17 14:52:00
11:52 AM,64.0,39.9,41,29.92,10.0,North,3.5,-,N/A,,Clear,360,2012-10-17 15:52:00
12:52 PM,64.9,41.0,42,29.91,10.0,SSE,6.9,-,N/A,,Clear,160,2012-10-17 16:52:00
1:52 PM,66.9,41.0,39,29.88,10.0,Variable,4.6,-,N/A,,Clear,0,2012-10-17 17:52:00
2:52 PM,66.9,35.1,31,29.85,10.0,SSE,8.1,-,N/A,,Clear,160,2012-10-17 18:52:00
3:52 PM,69.1,33.1,26,29.83,10.0,SE,5.8,-,N/A,,Clear,140,2012-10-17 19:52:00
4:52 PM,68.0,32.0,26,29.84,10.0,South,5.8,-,N/A,,Clear,180,2012-10-17 20:52:00
5:52 PM,64.0,37.9,38,29.85,10.0,Variable,6.9,-,N/A,,Clear,0,2012-10-17 21:52:00
6:52 PM,62.1,39.9,44,29.85,10.0,Variable,5.8,-,N/A,,Clear,0,2012-10-17 22:52:00
7:52 PM,60.1,39.9,47,29.86,10.0,Variable,3.5,20.7,N/A,,Clear,0,2012-10-17 23:52:00
8:52 PM,57.9,42.1,56,29.87,10.0,Variable,3.5,-,N/A,,Clear,0,2012-10-18 00:52:00
9:52 PM,57.9,42.1,56,29.84,10.0,SSE,15.0,24.2,N/A,,Clear,160,2012-10-18 01:52:00
10:52 PM,57.0,42.1,57,29.82,10.0,South,11.5,19.6,N/A,,Clear,170,2012-10-18 02:52:00
11:52 PM,57.0,41.0,55,29.78,10.0,Variable,6.9,23.0,N/A,,Clear,0,2012-10-18 03:52:00